Index of /20260430/WXO-DD/model_gdps/15km/00/060
Name Last modified Size Description
Parent Directory -
20260430T00Z_MSC_GDPS_AbsoluteVorticity_IsbL-0200_LatLon0.15_PT060H.grib2 2026-04-30 04:12 1.5M
20260430T00Z_MSC_GDPS_AbsoluteVorticity_IsbL-0250_LatLon0.15_PT060H.grib2 2026-04-30 04:12 1.6M
20260430T00Z_MSC_GDPS_AbsoluteVorticity_IsbL-0500_LatLon0.15_PT060H.grib2 2026-04-30 04:12 1.5M
20260430T00Z_MSC_GDPS_AbsoluteVorticity_IsbL-0700_LatLon0.15_PT060H.grib2 2026-04-30 04:12 1.3M
20260430T00Z_MSC_GDPS_AbsoluteVorticity_IsbL-0850_LatLon0.15_PT060H.grib2 2026-04-30 04:12 1.6M
20260430T00Z_MSC_GDPS_AirTemp-Max_AGL-2m_LatLon0.15_PT060H.grib2 2026-04-30 04:12 742K
20260430T00Z_MSC_GDPS_AirTemp-Min_AGL-2m_LatLon0.15_PT060H.grib2 2026-04-30 04:12 789K
20260430T00Z_MSC_GDPS_AirTemp_AGL-120m_LatLon0.15_PT060H.grib2 2026-04-30 04:12 909K
20260430T00Z_MSC_GDPS_AirTemp_AGL-2m_LatLon0.15_PT060H.grib2 2026-04-30 04:12 1.0M
20260430T00Z_MSC_GDPS_AirTemp_AGL-40m_LatLon0.15_PT060H.grib2 2026-04-30 04:12 812K
20260430T00Z_MSC_GDPS_AirTemp_AGL-80m_LatLon0.15_PT060H.grib2 2026-04-30 04:12 801K
20260430T00Z_MSC_GDPS_AirTemp_IsbL-0001_LatLon0.15_PT060H.grib2 2026-04-30 04:12 657K
20260430T00Z_MSC_GDPS_AirTemp_IsbL-0005_LatLon0.15_PT060H.grib2 2026-04-30 04:12 686K
20260430T00Z_MSC_GDPS_AirTemp_IsbL-0010_LatLon0.15_PT060H.grib2 2026-04-30 04:12 757K
20260430T00Z_MSC_GDPS_AirTemp_IsbL-0020_LatLon0.15_PT060H.grib2 2026-04-30 04:12 785K
20260430T00Z_MSC_GDPS_AirTemp_IsbL-0030_LatLon0.15_PT060H.grib2 2026-04-30 04:12 750K
20260430T00Z_MSC_GDPS_AirTemp_IsbL-0050_LatLon0.15_PT060H.grib2 2026-04-30 04:12 804K
20260430T00Z_MSC_GDPS_AirTemp_IsbL-0100_LatLon0.15_PT060H.grib2 2026-04-30 04:12 961K
20260430T00Z_MSC_GDPS_AirTemp_IsbL-0150_LatLon0.15_PT060H.grib2 2026-04-30 04:12 1.0M
20260430T00Z_MSC_GDPS_AirTemp_IsbL-0175_LatLon0.15_PT060H.grib2 2026-04-30 04:12 958K
20260430T00Z_MSC_GDPS_AirTemp_IsbL-0200_LatLon0.15_PT060H.grib2 2026-04-30 04:12 1.0M
20260430T00Z_MSC_GDPS_AirTemp_IsbL-0225_LatLon0.15_PT060H.grib2 2026-04-30 04:12 1.0M
20260430T00Z_MSC_GDPS_AirTemp_IsbL-0250_LatLon0.15_PT060H.grib2 2026-04-30 04:12 1.0M
20260430T00Z_MSC_GDPS_AirTemp_IsbL-0275_LatLon0.15_PT060H.grib2 2026-04-30 04:12 1.0M
20260430T00Z_MSC_GDPS_AirTemp_IsbL-0300_LatLon0.15_PT060H.grib2 2026-04-30 04:12 1.0M
20260430T00Z_MSC_GDPS_AirTemp_IsbL-0350_LatLon0.15_PT060H.grib2 2026-04-30 04:12 927K
20260430T00Z_MSC_GDPS_AirTemp_IsbL-0400_LatLon0.15_PT060H.grib2 2026-04-30 04:12 941K
20260430T00Z_MSC_GDPS_AirTemp_IsbL-0450_LatLon0.15_PT060H.grib2 2026-04-30 04:12 963K
20260430T00Z_MSC_GDPS_AirTemp_IsbL-0500_LatLon0.15_PT060H.grib2 2026-04-30 04:12 1.0M
20260430T00Z_MSC_GDPS_AirTemp_IsbL-0550_LatLon0.15_PT060H.grib2 2026-04-30 04:12 801K
20260430T00Z_MSC_GDPS_AirTemp_IsbL-0600_LatLon0.15_PT060H.grib2 2026-04-30 04:12 897K
20260430T00Z_MSC_GDPS_AirTemp_IsbL-0650_LatLon0.15_PT060H.grib2 2026-04-30 04:12 925K
20260430T00Z_MSC_GDPS_AirTemp_IsbL-0700_LatLon0.15_PT060H.grib2 2026-04-30 04:12 960K
20260430T00Z_MSC_GDPS_AirTemp_IsbL-0750_LatLon0.15_PT060H.grib2 2026-04-30 04:12 1.0M
20260430T00Z_MSC_GDPS_AirTemp_IsbL-0800_LatLon0.15_PT060H.grib2 2026-04-30 04:12 1.1M
20260430T00Z_MSC_GDPS_AirTemp_IsbL-0850_LatLon0.15_PT060H.grib2 2026-04-30 04:12 1.1M
20260430T00Z_MSC_GDPS_AirTemp_IsbL-0875_LatLon0.15_PT060H.grib2 2026-04-30 04:12 1.2M
20260430T00Z_MSC_GDPS_AirTemp_IsbL-0900_LatLon0.15_PT060H.grib2 2026-04-30 04:12 1.1M
20260430T00Z_MSC_GDPS_AirTemp_IsbL-0925_LatLon0.15_PT060H.grib2 2026-04-30 04:12 1.1M
20260430T00Z_MSC_GDPS_AirTemp_IsbL-0950_LatLon0.15_PT060H.grib2 2026-04-30 04:12 1.1M
20260430T00Z_MSC_GDPS_AirTemp_IsbL-0970_LatLon0.15_PT060H.grib2 2026-04-30 04:12 1.2M
20260430T00Z_MSC_GDPS_AirTemp_IsbL-0985_LatLon0.15_PT060H.grib2 2026-04-30 04:12 1.1M
20260430T00Z_MSC_GDPS_AirTemp_IsbL-1000_LatLon0.15_PT060H.grib2 2026-04-30 04:12 1.1M
20260430T00Z_MSC_GDPS_AirTemp_IsbL-1015_LatLon0.15_PT060H.grib2 2026-04-30 04:12 1.1M
20260430T00Z_MSC_GDPS_Albedo_Sfc_LatLon0.15_PT060H.grib2 2026-04-30 04:12 238K
20260430T00Z_MSC_GDPS_CAPE_Sfc_LatLon0.15_PT060H.grib2 2026-04-30 04:12 4.0M
20260430T00Z_MSC_GDPS_CIN_Sfc_LatLon0.15_PT060H.grib2 2026-04-30 04:12 3.0M
20260430T00Z_MSC_GDPS_CloudWater_EAtm_LatLon0.15_PT060H.grib2 2026-04-30 04:12 535K
20260430T00Z_MSC_GDPS_ConvectivePrecip-Accum_Sfc_LatLon0.15_PT060H.grib2 2026-04-30 04:12 3.1M
20260430T00Z_MSC_GDPS_DewPointDepression_AGL-2m_LatLon0.15_PT060H.grib2 2026-04-30 04:12 762K
20260430T00Z_MSC_GDPS_DewPointDepression_IsbL-0010_LatLon0.15_PT060H.grib2 2026-04-30 04:12 61K
20260430T00Z_MSC_GDPS_DewPointDepression_IsbL-0020_LatLon0.15_PT060H.grib2 2026-04-30 04:12 64K
20260430T00Z_MSC_GDPS_DewPointDepression_IsbL-0030_LatLon0.15_PT060H.grib2 2026-04-30 04:12 74K
20260430T00Z_MSC_GDPS_DewPointDepression_IsbL-0050_LatLon0.15_PT060H.grib2 2026-04-30 04:12 372K
20260430T00Z_MSC_GDPS_DewPointDepression_IsbL-0100_LatLon0.15_PT060H.grib2 2026-04-30 04:12 408K
20260430T00Z_MSC_GDPS_DewPointDepression_IsbL-0150_LatLon0.15_PT060H.grib2 2026-04-30 04:12 469K
20260430T00Z_MSC_GDPS_DewPointDepression_IsbL-0175_LatLon0.15_PT060H.grib2 2026-04-30 04:12 574K
20260430T00Z_MSC_GDPS_DewPointDepression_IsbL-0200_LatLon0.15_PT060H.grib2 2026-04-30 04:12 684K
20260430T00Z_MSC_GDPS_DewPointDepression_IsbL-0225_LatLon0.15_PT060H.grib2 2026-04-30 04:12 780K
20260430T00Z_MSC_GDPS_DewPointDepression_IsbL-0250_LatLon0.15_PT060H.grib2 2026-04-30 04:12 860K
20260430T00Z_MSC_GDPS_DewPointDepression_IsbL-0275_LatLon0.15_PT060H.grib2 2026-04-30 04:12 881K
20260430T00Z_MSC_GDPS_DewPointDepression_IsbL-0300_LatLon0.15_PT060H.grib2 2026-04-30 04:12 918K
20260430T00Z_MSC_GDPS_DewPointDepression_IsbL-0350_LatLon0.15_PT060H.grib2 2026-04-30 04:12 945K
20260430T00Z_MSC_GDPS_DewPointDepression_IsbL-0400_LatLon0.15_PT060H.grib2 2026-04-30 04:12 1.0M
20260430T00Z_MSC_GDPS_DewPointDepression_IsbL-0450_LatLon0.15_PT060H.grib2 2026-04-30 04:12 1.0M
20260430T00Z_MSC_GDPS_DewPointDepression_IsbL-0500_LatLon0.15_PT060H.grib2 2026-04-30 04:12 1.0M
20260430T00Z_MSC_GDPS_DewPointDepression_IsbL-0550_LatLon0.15_PT060H.grib2 2026-04-30 04:12 1.0M
20260430T00Z_MSC_GDPS_DewPointDepression_IsbL-0600_LatLon0.15_PT060H.grib2 2026-04-30 04:12 1.0M
20260430T00Z_MSC_GDPS_DewPointDepression_IsbL-0650_LatLon0.15_PT060H.grib2 2026-04-30 04:12 1.1M
20260430T00Z_MSC_GDPS_DewPointDepression_IsbL-0700_LatLon0.15_PT060H.grib2 2026-04-30 04:12 1.1M
20260430T00Z_MSC_GDPS_DewPointDepression_IsbL-0750_LatLon0.15_PT060H.grib2 2026-04-30 04:12 1.1M
20260430T00Z_MSC_GDPS_DewPointDepression_IsbL-0800_LatLon0.15_PT060H.grib2 2026-04-30 04:12 1.2M
20260430T00Z_MSC_GDPS_DewPointDepression_IsbL-0850_LatLon0.15_PT060H.grib2 2026-04-30 04:12 1.2M
20260430T00Z_MSC_GDPS_DewPointDepression_IsbL-0875_LatLon0.15_PT060H.grib2 2026-04-30 04:12 1.1M
20260430T00Z_MSC_GDPS_DewPointDepression_IsbL-0900_LatLon0.15_PT060H.grib2 2026-04-30 04:12 1.1M
20260430T00Z_MSC_GDPS_DewPointDepression_IsbL-0925_LatLon0.15_PT060H.grib2 2026-04-30 04:12 1.0M
20260430T00Z_MSC_GDPS_DewPointDepression_IsbL-0950_LatLon0.15_PT060H.grib2 2026-04-30 04:12 1.0M
20260430T00Z_MSC_GDPS_DewPointDepression_IsbL-0970_LatLon0.15_PT060H.grib2 2026-04-30 04:12 1.0M
20260430T00Z_MSC_GDPS_DewPointDepression_IsbL-0985_LatLon0.15_PT060H.grib2 2026-04-30 04:12 1.0M
20260430T00Z_MSC_GDPS_DewPointDepression_IsbL-1000_LatLon0.15_PT060H.grib2 2026-04-30 04:12 1.0M
20260430T00Z_MSC_GDPS_DewPointDepression_IsbL-1015_LatLon0.15_PT060H.grib2 2026-04-30 04:12 915K
20260430T00Z_MSC_GDPS_DewPoint_AGL-2m_LatLon0.15_PT060H.grib2 2026-04-30 04:12 612K
20260430T00Z_MSC_GDPS_DownwardLongwaveRadiationFlux-Accum_Sfc_LatLon0.15_PT060H.grib2 2026-04-30 04:12 870K
20260430T00Z_MSC_GDPS_DownwardShortwaveRadiationFlux-Accum_NTAtm_LatLon0.15_PT060H.grib2 2026-04-30 04:12 218K
20260430T00Z_MSC_GDPS_DownwardShortwaveRadiationFlux-Accum_Sfc_LatLon0.15_PT060H.grib2 2026-04-30 04:12 1.1M
20260430T00Z_MSC_GDPS_FreezingRain-Accum12h_Sfc_LatLon0.15_PT060H.grib2 2026-04-30 04:12 107K
20260430T00Z_MSC_GDPS_FreezingRain-Accum1h_Sfc_LatLon0.15_PT060H.grib2 2026-04-30 04:12 51K
20260430T00Z_MSC_GDPS_FreezingRain-Accum24h_Sfc_LatLon0.15_PT060H.grib2 2026-04-30 04:12 163K
20260430T00Z_MSC_GDPS_FreezingRain-Accum3h_Sfc_LatLon0.15_PT060H.grib2 2026-04-30 04:12 59K
20260430T00Z_MSC_GDPS_FreezingRain-Accum6h_Sfc_LatLon0.15_PT060H.grib2 2026-04-30 04:12 73K
20260430T00Z_MSC_GDPS_FreezingRain-Accum_Sfc_LatLon0.15_PT060H.grib2 2026-04-30 04:12 292K
20260430T00Z_MSC_GDPS_GeopotentialHeight_IsbL-0001_LatLon0.15_PT060H.grib2 2026-04-30 04:12 382K
20260430T00Z_MSC_GDPS_GeopotentialHeight_IsbL-0005_LatLon0.15_PT060H.grib2 2026-04-30 04:12 486K
20260430T00Z_MSC_GDPS_GeopotentialHeight_IsbL-0010_LatLon0.15_PT060H.grib2 2026-04-30 04:12 479K
20260430T00Z_MSC_GDPS_GeopotentialHeight_IsbL-0020_LatLon0.15_PT060H.grib2 2026-04-30 04:12 416K
20260430T00Z_MSC_GDPS_GeopotentialHeight_IsbL-0030_LatLon0.15_PT060H.grib2 2026-04-30 04:12 571K
20260430T00Z_MSC_GDPS_GeopotentialHeight_IsbL-0050_LatLon0.15_PT060H.grib2 2026-04-30 04:12 572K
20260430T00Z_MSC_GDPS_GeopotentialHeight_IsbL-0100_LatLon0.15_PT060H.grib2 2026-04-30 04:12 613K
20260430T00Z_MSC_GDPS_GeopotentialHeight_IsbL-0150_LatLon0.15_PT060H.grib2 2026-04-30 04:12 633K
20260430T00Z_MSC_GDPS_GeopotentialHeight_IsbL-0175_LatLon0.15_PT060H.grib2 2026-04-30 04:12 639K
20260430T00Z_MSC_GDPS_GeopotentialHeight_IsbL-0200_LatLon0.15_PT060H.grib2 2026-04-30 04:12 642K
20260430T00Z_MSC_GDPS_GeopotentialHeight_IsbL-0225_LatLon0.15_PT060H.grib2 2026-04-30 04:12 644K
20260430T00Z_MSC_GDPS_GeopotentialHeight_IsbL-0250_LatLon0.15_PT060H.grib2 2026-04-30 04:12 647K
20260430T00Z_MSC_GDPS_GeopotentialHeight_IsbL-0275_LatLon0.15_PT060H.grib2 2026-04-30 04:12 645K
20260430T00Z_MSC_GDPS_GeopotentialHeight_IsbL-0300_LatLon0.15_PT060H.grib2 2026-04-30 04:12 638K
20260430T00Z_MSC_GDPS_GeopotentialHeight_IsbL-0350_LatLon0.15_PT060H.grib2 2026-04-30 04:12 632K
20260430T00Z_MSC_GDPS_GeopotentialHeight_IsbL-0400_LatLon0.15_PT060H.grib2 2026-04-30 04:12 624K
20260430T00Z_MSC_GDPS_GeopotentialHeight_IsbL-0450_LatLon0.15_PT060H.grib2 2026-04-30 04:12 616K
20260430T00Z_MSC_GDPS_GeopotentialHeight_IsbL-0500_LatLon0.15_PT060H.grib2 2026-04-30 04:12 537K
20260430T00Z_MSC_GDPS_GeopotentialHeight_IsbL-0550_LatLon0.15_PT060H.grib2 2026-04-30 04:12 529K
20260430T00Z_MSC_GDPS_GeopotentialHeight_IsbL-0600_LatLon0.15_PT060H.grib2 2026-04-30 04:12 524K
20260430T00Z_MSC_GDPS_GeopotentialHeight_IsbL-0650_LatLon0.15_PT060H.grib2 2026-04-30 04:12 693K
20260430T00Z_MSC_GDPS_GeopotentialHeight_IsbL-0700_LatLon0.15_PT060H.grib2 2026-04-30 04:12 689K
20260430T00Z_MSC_GDPS_GeopotentialHeight_IsbL-0750_LatLon0.15_PT060H.grib2 2026-04-30 04:12 700K
20260430T00Z_MSC_GDPS_GeopotentialHeight_IsbL-0800_LatLon0.15_PT060H.grib2 2026-04-30 04:12 710K
20260430T00Z_MSC_GDPS_GeopotentialHeight_IsbL-0850_LatLon0.15_PT060H.grib2 2026-04-30 04:12 716K
20260430T00Z_MSC_GDPS_GeopotentialHeight_IsbL-0875_LatLon0.15_PT060H.grib2 2026-04-30 04:12 724K
20260430T00Z_MSC_GDPS_GeopotentialHeight_IsbL-0900_LatLon0.15_PT060H.grib2 2026-04-30 04:12 730K
20260430T00Z_MSC_GDPS_GeopotentialHeight_IsbL-0925_LatLon0.15_PT060H.grib2 2026-04-30 04:12 737K
20260430T00Z_MSC_GDPS_GeopotentialHeight_IsbL-0950_LatLon0.15_PT060H.grib2 2026-04-30 04:12 744K
20260430T00Z_MSC_GDPS_GeopotentialHeight_IsbL-0970_LatLon0.15_PT060H.grib2 2026-04-30 04:12 758K
20260430T00Z_MSC_GDPS_GeopotentialHeight_IsbL-0985_LatLon0.15_PT060H.grib2 2026-04-30 04:12 773K
20260430T00Z_MSC_GDPS_GeopotentialHeight_IsbL-1000_LatLon0.15_PT060H.grib2 2026-04-30 04:12 794K
20260430T00Z_MSC_GDPS_GeopotentialHeight_IsbL-1015_LatLon0.15_PT060H.grib2 2026-04-30 04:12 815K
20260430T00Z_MSC_GDPS_Humidex_Sfc_LatLon0.15_PT060H.grib2 2026-04-30 04:12 5.3M
20260430T00Z_MSC_GDPS_IcePellets-Accum12h_Sfc_LatLon0.15_PT060H.grib2 2026-04-30 04:12 17K
20260430T00Z_MSC_GDPS_IcePellets-Accum1h_Sfc_LatLon0.15_PT060H.grib2 2026-04-30 04:12 10K
20260430T00Z_MSC_GDPS_IcePellets-Accum24h_Sfc_LatLon0.15_PT060H.grib2 2026-04-30 04:12 34K
20260430T00Z_MSC_GDPS_IcePellets-Accum3h_Sfc_LatLon0.15_PT060H.grib2 2026-04-30 04:12 10K
20260430T00Z_MSC_GDPS_IcePellets-Accum6h_Sfc_LatLon0.15_PT060H.grib2 2026-04-30 04:12 11K
20260430T00Z_MSC_GDPS_IcePellets-Accum_Sfc_LatLon0.15_PT060H.grib2 2026-04-30 04:12 64K
20260430T00Z_MSC_GDPS_KIndex_Sfc_LatLon0.15_PT060H.grib2 2026-04-30 04:12 6.5M
20260430T00Z_MSC_GDPS_LatentHeatNetFlux_Sfc_LatLon0.15_PT060H.grib2 2026-04-30 04:12 727K
20260430T00Z_MSC_GDPS_LiftedIndex-MU-VT_IsbL-0500_LatLon0.15_PT060H.grib2 2026-04-30 04:12 5.4M
20260430T00Z_MSC_GDPS_NetLongwaveRadiationFlux-Accum_Sfc_LatLon0.15_PT060H.grib2 2026-04-30 04:12 1.2M
20260430T00Z_MSC_GDPS_NetShortwaveRadiationFlux-Accum_Sfc_LatLon0.15_PT060H.grib2 2026-04-30 04:12 1.0M
20260430T00Z_MSC_GDPS_O3MixingRatio_Sfc_LatLon0.15_PT060H.grib2 2026-04-30 04:50 2.3M
20260430T00Z_MSC_GDPS_O3_EAtm_LatLon0.15_PT060H.grib2 2026-04-30 04:50 2.4M
20260430T00Z_MSC_GDPS_PlanetaryBoundaryLayerHeight_Sfc_LatLon0.15_PT060H.grib2 2026-04-30 04:12 2.5M
20260430T00Z_MSC_GDPS_Precip-Accum12h_Sfc_LatLon0.15_PT060H.grib2 2026-04-30 04:12 4.0M
20260430T00Z_MSC_GDPS_Precip-Accum1h_Sfc_LatLon0.15_PT060H.grib2 2026-04-30 04:12 3.3M
20260430T00Z_MSC_GDPS_Precip-Accum24h_Sfc_LatLon0.15_PT060H.grib2 2026-04-30 04:12 4.5M
20260430T00Z_MSC_GDPS_Precip-Accum3h_Sfc_LatLon0.15_PT060H.grib2 2026-04-30 04:12 3.5M
20260430T00Z_MSC_GDPS_Precip-Accum6h_Sfc_LatLon0.15_PT060H.grib2 2026-04-30 04:12 3.8M
20260430T00Z_MSC_GDPS_Precip-Accum_Sfc_LatLon0.15_PT060H.grib2 2026-04-30 04:12 5.0M
20260430T00Z_MSC_GDPS_PrecipRate_Sfc_LatLon0.15_PT060H.grib2 2026-04-30 04:12 3.1M
20260430T00Z_MSC_GDPS_PrecipType-Instant_Sfc_LatLon0.15_PT060H.grib2 2026-04-30 04:12 1.6M
20260430T00Z_MSC_GDPS_Pressure_MSL_LatLon0.15_PT060H.grib2 2026-04-30 04:12 836K
20260430T00Z_MSC_GDPS_Pressure_PVU-1.5_LatLon0.15_PT060H.grib2 2026-04-30 04:12 5.8M
20260430T00Z_MSC_GDPS_Pressure_PVU-1_LatLon0.15_PT060H.grib2 2026-04-30 04:12 6.0M
20260430T00Z_MSC_GDPS_Pressure_PVU-2_LatLon0.15_PT060H.grib2 2026-04-30 04:12 5.6M
20260430T00Z_MSC_GDPS_Pressure_Sfc_LatLon0.15_PT060H.grib2 2026-04-30 04:12 1.1M
20260430T00Z_MSC_GDPS_RadiativeTemp_Sfc_LatLon0.15_PT060H.grib2 2026-04-30 04:12 501K
20260430T00Z_MSC_GDPS_Rain-Accum12h_Sfc_LatLon0.15_PT060H.grib2 2026-04-30 04:12 2.7M
20260430T00Z_MSC_GDPS_Rain-Accum1h_Sfc_LatLon0.15_PT060H.grib2 2026-04-30 04:12 1.7M
20260430T00Z_MSC_GDPS_Rain-Accum24h_Sfc_LatLon0.15_PT060H.grib2 2026-04-30 04:12 3.2M
20260430T00Z_MSC_GDPS_Rain-Accum3h_Sfc_LatLon0.15_PT060H.grib2 2026-04-30 04:12 1.9M
20260430T00Z_MSC_GDPS_Rain-Accum6h_Sfc_LatLon0.15_PT060H.grib2 2026-04-30 04:12 2.5M
20260430T00Z_MSC_GDPS_Rain-Accum_Sfc_LatLon0.15_PT060H.grib2 2026-04-30 04:12 3.8M
20260430T00Z_MSC_GDPS_RelativeHumidity_AGL-2m_LatLon0.15_PT060H.grib2 2026-04-30 04:12 1.1M
20260430T00Z_MSC_GDPS_RelativeHumidity_IsbL-0010_LatLon0.15_PT060H.grib2 2026-04-30 04:12 198K
20260430T00Z_MSC_GDPS_RelativeHumidity_IsbL-0020_LatLon0.15_PT060H.grib2 2026-04-30 04:12 167K
20260430T00Z_MSC_GDPS_RelativeHumidity_IsbL-0030_LatLon0.15_PT060H.grib2 2026-04-30 04:12 267K
20260430T00Z_MSC_GDPS_RelativeHumidity_IsbL-0050_LatLon0.15_PT060H.grib2 2026-04-30 04:12 419K
20260430T00Z_MSC_GDPS_RelativeHumidity_IsbL-0100_LatLon0.15_PT060H.grib2 2026-04-30 04:12 512K
20260430T00Z_MSC_GDPS_RelativeHumidity_IsbL-0150_LatLon0.15_PT060H.grib2 2026-04-30 04:12 665K
20260430T00Z_MSC_GDPS_RelativeHumidity_IsbL-0175_LatLon0.15_PT060H.grib2 2026-04-30 04:12 778K
20260430T00Z_MSC_GDPS_RelativeHumidity_IsbL-0200_LatLon0.15_PT060H.grib2 2026-04-30 04:12 699K
20260430T00Z_MSC_GDPS_RelativeHumidity_IsbL-0225_LatLon0.15_PT060H.grib2 2026-04-30 04:12 791K
20260430T00Z_MSC_GDPS_RelativeHumidity_IsbL-0250_LatLon0.15_PT060H.grib2 2026-04-30 04:12 865K
20260430T00Z_MSC_GDPS_RelativeHumidity_IsbL-0275_LatLon0.15_PT060H.grib2 2026-04-30 04:12 886K
20260430T00Z_MSC_GDPS_RelativeHumidity_IsbL-0300_LatLon0.15_PT060H.grib2 2026-04-30 04:12 929K
20260430T00Z_MSC_GDPS_RelativeHumidity_IsbL-0350_LatLon0.15_PT060H.grib2 2026-04-30 04:12 947K
20260430T00Z_MSC_GDPS_RelativeHumidity_IsbL-0400_LatLon0.15_PT060H.grib2 2026-04-30 04:12 971K
20260430T00Z_MSC_GDPS_RelativeHumidity_IsbL-0450_LatLon0.15_PT060H.grib2 2026-04-30 04:12 1.0M
20260430T00Z_MSC_GDPS_RelativeHumidity_IsbL-0500_LatLon0.15_PT060H.grib2 2026-04-30 04:12 1.0M
20260430T00Z_MSC_GDPS_RelativeHumidity_IsbL-0550_LatLon0.15_PT060H.grib2 2026-04-30 04:12 1.0M
20260430T00Z_MSC_GDPS_RelativeHumidity_IsbL-0600_LatLon0.15_PT060H.grib2 2026-04-30 04:12 1.1M
20260430T00Z_MSC_GDPS_RelativeHumidity_IsbL-0650_LatLon0.15_PT060H.grib2 2026-04-30 04:12 1.1M
20260430T00Z_MSC_GDPS_RelativeHumidity_IsbL-0700_LatLon0.15_PT060H.grib2 2026-04-30 04:12 1.1M
20260430T00Z_MSC_GDPS_RelativeHumidity_IsbL-0750_LatLon0.15_PT060H.grib2 2026-04-30 04:12 1.2M
20260430T00Z_MSC_GDPS_RelativeHumidity_IsbL-0800_LatLon0.15_PT060H.grib2 2026-04-30 04:12 1.3M
20260430T00Z_MSC_GDPS_RelativeHumidity_IsbL-0850_LatLon0.15_PT060H.grib2 2026-04-30 04:12 1.3M
20260430T00Z_MSC_GDPS_RelativeHumidity_IsbL-0875_LatLon0.15_PT060H.grib2 2026-04-30 04:12 1.3M
20260430T00Z_MSC_GDPS_RelativeHumidity_IsbL-0900_LatLon0.15_PT060H.grib2 2026-04-30 04:12 1.3M
20260430T00Z_MSC_GDPS_RelativeHumidity_IsbL-0925_LatLon0.15_PT060H.grib2 2026-04-30 04:12 1.2M
20260430T00Z_MSC_GDPS_RelativeHumidity_IsbL-0950_LatLon0.15_PT060H.grib2 2026-04-30 04:12 1.2M
20260430T00Z_MSC_GDPS_RelativeHumidity_IsbL-0970_LatLon0.15_PT060H.grib2 2026-04-30 04:12 1.2M
20260430T00Z_MSC_GDPS_RelativeHumidity_IsbL-0985_LatLon0.15_PT060H.grib2 2026-04-30 04:12 1.2M
20260430T00Z_MSC_GDPS_RelativeHumidity_IsbL-1000_LatLon0.15_PT060H.grib2 2026-04-30 04:12 1.1M
20260430T00Z_MSC_GDPS_RelativeHumidity_IsbL-1015_LatLon0.15_PT060H.grib2 2026-04-30 04:12 1.0M
20260430T00Z_MSC_GDPS_RelativeVorticity_IsbL-0200_LatLon0.15_PT060H.grib2 2026-04-30 04:12 1.5M
20260430T00Z_MSC_GDPS_RelativeVorticity_IsbL-0250_LatLon0.15_PT060H.grib2 2026-04-30 04:12 1.6M
20260430T00Z_MSC_GDPS_RelativeVorticity_IsbL-0500_LatLon0.15_PT060H.grib2 2026-04-30 04:12 1.5M
20260430T00Z_MSC_GDPS_RelativeVorticity_IsbL-0700_LatLon0.15_PT060H.grib2 2026-04-30 04:12 1.3M
20260430T00Z_MSC_GDPS_RelativeVorticity_IsbL-0850_LatLon0.15_PT060H.grib2 2026-04-30 04:12 1.6M
20260430T00Z_MSC_GDPS_Runoff-Accum_Sfc_LatLon0.15_PT060H.grib2 2026-04-30 04:12 140K
20260430T00Z_MSC_GDPS_SensibleHeatNetFlux_Sfc_LatLon0.15_PT060H.grib2 2026-04-30 04:12 657K
20260430T00Z_MSC_GDPS_ShowalterIndex_IsbL-0500_LatLon0.15_PT060H.grib2 2026-04-30 04:12 6.2M
20260430T00Z_MSC_GDPS_Snow-Accum12h_Sfc_LatLon0.15_PT060H.grib2 2026-04-30 04:12 1.3M
20260430T00Z_MSC_GDPS_Snow-Accum1h_Sfc_LatLon0.15_PT060H.grib2 2026-04-30 04:12 1.1M
20260430T00Z_MSC_GDPS_Snow-Accum24h_Sfc_LatLon0.15_PT060H.grib2 2026-04-30 04:12 1.6M
20260430T00Z_MSC_GDPS_Snow-Accum3h_Sfc_LatLon0.15_PT060H.grib2 2026-04-30 04:12 1.0M
20260430T00Z_MSC_GDPS_Snow-Accum6h_Sfc_LatLon0.15_PT060H.grib2 2026-04-30 04:12 1.2M
20260430T00Z_MSC_GDPS_Snow-Accum_Sfc_LatLon0.15_PT060H.grib2 2026-04-30 04:12 2.0M
20260430T00Z_MSC_GDPS_SnowDensity_Sfc_LatLon0.15_PT060H.grib2 2026-04-30 04:12 265K
20260430T00Z_MSC_GDPS_SnowDepth_Sfc_LatLon0.15_PT060H.grib2 2026-04-30 04:12 1.7M
20260430T00Z_MSC_GDPS_SoilTemp_DBS-0to10cm_LatLon0.15_PT060H.grib2 2026-04-30 04:12 508K
20260430T00Z_MSC_GDPS_SoilTemp_Sfc_LatLon0.15_PT060H.grib2 2026-04-30 04:12 590K
20260430T00Z_MSC_GDPS_SoilVolumetricIceContent_Sfc_LatLon0.15_PT060H.grib2 2026-04-30 04:12 202K
20260430T00Z_MSC_GDPS_SoilVolumetricWaterContent_DBS-0to10cm_LatLon0.15_PT060H.grib2 2026-04-30 04:12 587K
20260430T00Z_MSC_GDPS_SoilVolumetricWaterContent_DBS-0to1cm_LatLon0.15_PT060H.grib2 2026-04-30 04:12 651K
20260430T00Z_MSC_GDPS_SpecificHumidity_AGL-120m_LatLon0.15_PT060H.grib2 2026-04-30 04:12 1.1M
20260430T00Z_MSC_GDPS_SpecificHumidity_AGL-2m_LatLon0.15_PT060H.grib2 2026-04-30 04:12 1.2M
20260430T00Z_MSC_GDPS_SpecificHumidity_AGL-40m_LatLon0.15_PT060H.grib2 2026-04-30 04:12 1.1M
20260430T00Z_MSC_GDPS_SpecificHumidity_AGL-80m_LatLon0.15_PT060H.grib2 2026-04-30 04:12 1.1M
20260430T00Z_MSC_GDPS_SpecificHumidity_IsbL-0001_LatLon0.15_PT060H.grib2 2026-04-30 04:12 1.3M
20260430T00Z_MSC_GDPS_SpecificHumidity_IsbL-0005_LatLon0.15_PT060H.grib2 2026-04-30 04:12 1.2M
20260430T00Z_MSC_GDPS_SpecificHumidity_IsbL-0010_LatLon0.15_PT060H.grib2 2026-04-30 04:12 1.3M
20260430T00Z_MSC_GDPS_SpecificHumidity_IsbL-0020_LatLon0.15_PT060H.grib2 2026-04-30 04:12 1.4M
20260430T00Z_MSC_GDPS_SpecificHumidity_IsbL-0030_LatLon0.15_PT060H.grib2 2026-04-30 04:12 1.3M
20260430T00Z_MSC_GDPS_SpecificHumidity_IsbL-0050_LatLon0.15_PT060H.grib2 2026-04-30 04:12 1.3M
20260430T00Z_MSC_GDPS_SpecificHumidity_IsbL-0100_LatLon0.15_PT060H.grib2 2026-04-30 04:12 1.3M
20260430T00Z_MSC_GDPS_SpecificHumidity_IsbL-0150_LatLon0.15_PT060H.grib2 2026-04-30 04:12 1.3M
20260430T00Z_MSC_GDPS_SpecificHumidity_IsbL-0175_LatLon0.15_PT060H.grib2 2026-04-30 04:12 1.2M
20260430T00Z_MSC_GDPS_SpecificHumidity_IsbL-0200_LatLon0.15_PT060H.grib2 2026-04-30 04:12 1.3M
20260430T00Z_MSC_GDPS_SpecificHumidity_IsbL-0225_LatLon0.15_PT060H.grib2 2026-04-30 04:12 1.3M
20260430T00Z_MSC_GDPS_SpecificHumidity_IsbL-0250_LatLon0.15_PT060H.grib2 2026-04-30 04:12 1.4M
20260430T00Z_MSC_GDPS_SpecificHumidity_IsbL-0275_LatLon0.15_PT060H.grib2 2026-04-30 04:12 1.3M
20260430T00Z_MSC_GDPS_SpecificHumidity_IsbL-0300_LatLon0.15_PT060H.grib2 2026-04-30 04:12 1.2M
20260430T00Z_MSC_GDPS_SpecificHumidity_IsbL-0350_LatLon0.15_PT060H.grib2 2026-04-30 04:12 1.2M
20260430T00Z_MSC_GDPS_SpecificHumidity_IsbL-0400_LatLon0.15_PT060H.grib2 2026-04-30 04:12 1.5M
20260430T00Z_MSC_GDPS_SpecificHumidity_IsbL-0450_LatLon0.15_PT060H.grib2 2026-04-30 04:12 1.6M
20260430T00Z_MSC_GDPS_SpecificHumidity_IsbL-0500_LatLon0.15_PT060H.grib2 2026-04-30 04:12 1.4M
20260430T00Z_MSC_GDPS_SpecificHumidity_IsbL-0550_LatLon0.15_PT060H.grib2 2026-04-30 04:12 1.6M
20260430T00Z_MSC_GDPS_SpecificHumidity_IsbL-0600_LatLon0.15_PT060H.grib2 2026-04-30 04:12 1.7M
20260430T00Z_MSC_GDPS_SpecificHumidity_IsbL-0650_LatLon0.15_PT060H.grib2 2026-04-30 04:12 1.5M
20260430T00Z_MSC_GDPS_SpecificHumidity_IsbL-0700_LatLon0.15_PT060H.grib2 2026-04-30 04:12 1.6M
20260430T00Z_MSC_GDPS_SpecificHumidity_IsbL-0750_LatLon0.15_PT060H.grib2 2026-04-30 04:12 1.7M
20260430T00Z_MSC_GDPS_SpecificHumidity_IsbL-0800_LatLon0.15_PT060H.grib2 2026-04-30 04:12 1.9M
20260430T00Z_MSC_GDPS_SpecificHumidity_IsbL-0850_LatLon0.15_PT060H.grib2 2026-04-30 04:12 1.9M
20260430T00Z_MSC_GDPS_SpecificHumidity_IsbL-0875_LatLon0.15_PT060H.grib2 2026-04-30 04:12 1.9M
20260430T00Z_MSC_GDPS_SpecificHumidity_IsbL-0900_LatLon0.15_PT060H.grib2 2026-04-30 04:12 1.9M
20260430T00Z_MSC_GDPS_SpecificHumidity_IsbL-0925_LatLon0.15_PT060H.grib2 2026-04-30 04:12 1.6M
20260430T00Z_MSC_GDPS_SpecificHumidity_IsbL-0950_LatLon0.15_PT060H.grib2 2026-04-30 04:12 1.6M
20260430T00Z_MSC_GDPS_SpecificHumidity_IsbL-0970_LatLon0.15_PT060H.grib2 2026-04-30 04:12 1.6M
20260430T00Z_MSC_GDPS_SpecificHumidity_IsbL-0985_LatLon0.15_PT060H.grib2 2026-04-30 04:12 1.5M
20260430T00Z_MSC_GDPS_SpecificHumidity_IsbL-1000_LatLon0.15_PT060H.grib2 2026-04-30 04:12 1.5M
20260430T00Z_MSC_GDPS_SpecificHumidity_IsbL-1015_LatLon0.15_PT060H.grib2 2026-04-30 04:12 1.5M
20260430T00Z_MSC_GDPS_SpecificHumidity_Sfc_LatLon0.15_PT060H.grib2 2026-04-30 04:12 679K
20260430T00Z_MSC_GDPS_Thickness_IsbL-0850to0700_LatLon0.15_PT060H.grib2 2026-04-30 04:12 469K
20260430T00Z_MSC_GDPS_Thickness_IsbL-1000to0500_LatLon0.15_PT060H.grib2 2026-04-30 04:12 374K
20260430T00Z_MSC_GDPS_Thickness_IsbL-1000to0850_LatLon0.15_PT060H.grib2 2026-04-30 04:12 493K
20260430T00Z_MSC_GDPS_TotalCloudCover_Sfc_LatLon0.15_PT060H.grib2 2026-04-30 04:12 835K
20260430T00Z_MSC_GDPS_TotalTotalsIndex_Sfc_LatLon0.15_PT060H.grib2 2026-04-30 04:12 6.2M
20260430T00Z_MSC_GDPS_UVIndex-ClearSky_Sfc_LatLon0.15_PT060H.grib2 2026-04-30 04:50 1.0M
20260430T00Z_MSC_GDPS_UVIndex_Sfc_LatLon0.15_PT060H.grib2 2026-04-30 04:50 1.4M
20260430T00Z_MSC_GDPS_UpwardLongwaveRadiationFlux_NTAtm_LatLon0.15_PT060H.grib2 2026-04-30 04:12 847K
20260430T00Z_MSC_GDPS_VerticalVelocity_IsbL-0200_LatLon0.15_PT060H.grib2 2026-04-30 04:12 1.2M
20260430T00Z_MSC_GDPS_VerticalVelocity_IsbL-0250_LatLon0.15_PT060H.grib2 2026-04-30 04:12 1.0M
20260430T00Z_MSC_GDPS_VerticalVelocity_IsbL-0500_LatLon0.15_PT060H.grib2 2026-04-30 04:12 1.3M
20260430T00Z_MSC_GDPS_VerticalVelocity_IsbL-0600_LatLon0.15_PT060H.grib2 2026-04-30 04:12 1.1M
20260430T00Z_MSC_GDPS_VerticalVelocity_IsbL-0700_LatLon0.15_PT060H.grib2 2026-04-30 04:12 1.2M
20260430T00Z_MSC_GDPS_VerticalVelocity_IsbL-0850_LatLon0.15_PT060H.grib2 2026-04-30 04:12 1.4M
20260430T00Z_MSC_GDPS_WindChill_Sfc_LatLon0.15_PT060H.grib2 2026-04-30 04:12 5.3M
20260430T00Z_MSC_GDPS_WindDir_AGL-10m_LatLon0.15_PT060H.grib2 2026-04-30 04:12 1.3M
20260430T00Z_MSC_GDPS_WindDir_AGL-120m_LatLon0.15_PT060H.grib2 2026-04-30 04:12 1.3M
20260430T00Z_MSC_GDPS_WindDir_AGL-40m_LatLon0.15_PT060H.grib2 2026-04-30 04:12 1.4M
20260430T00Z_MSC_GDPS_WindDir_AGL-80m_LatLon0.15_PT060H.grib2 2026-04-30 04:12 1.4M
20260430T00Z_MSC_GDPS_WindDir_IsbL-0001_LatLon0.15_PT060H.grib2 2026-04-30 04:12 672K
20260430T00Z_MSC_GDPS_WindDir_IsbL-0005_LatLon0.15_PT060H.grib2 2026-04-30 04:12 808K
20260430T00Z_MSC_GDPS_WindDir_IsbL-0010_LatLon0.15_PT060H.grib2 2026-04-30 04:12 840K
20260430T00Z_MSC_GDPS_WindDir_IsbL-0020_LatLon0.15_PT060H.grib2 2026-04-30 04:12 957K
20260430T00Z_MSC_GDPS_WindDir_IsbL-0030_LatLon0.15_PT060H.grib2 2026-04-30 04:12 931K
20260430T00Z_MSC_GDPS_WindDir_IsbL-0050_LatLon0.15_PT060H.grib2 2026-04-30 04:12 949K
20260430T00Z_MSC_GDPS_WindDir_IsbL-0100_LatLon0.15_PT060H.grib2 2026-04-30 04:12 1.0M
20260430T00Z_MSC_GDPS_WindDir_IsbL-0150_LatLon0.15_PT060H.grib2 2026-04-30 04:12 1.0M
20260430T00Z_MSC_GDPS_WindDir_IsbL-0175_LatLon0.15_PT060H.grib2 2026-04-30 04:12 1.0M
20260430T00Z_MSC_GDPS_WindDir_IsbL-0200_LatLon0.15_PT060H.grib2 2026-04-30 04:12 1.1M
20260430T00Z_MSC_GDPS_WindDir_IsbL-0225_LatLon0.15_PT060H.grib2 2026-04-30 04:12 1.1M
20260430T00Z_MSC_GDPS_WindDir_IsbL-0250_LatLon0.15_PT060H.grib2 2026-04-30 04:12 1.1M
20260430T00Z_MSC_GDPS_WindDir_IsbL-0275_LatLon0.15_PT060H.grib2 2026-04-30 04:12 1.2M
20260430T00Z_MSC_GDPS_WindDir_IsbL-0300_LatLon0.15_PT060H.grib2 2026-04-30 04:12 1.2M
20260430T00Z_MSC_GDPS_WindDir_IsbL-0350_LatLon0.15_PT060H.grib2 2026-04-30 04:12 1.2M
20260430T00Z_MSC_GDPS_WindDir_IsbL-0400_LatLon0.15_PT060H.grib2 2026-04-30 04:12 1.3M
20260430T00Z_MSC_GDPS_WindDir_IsbL-0450_LatLon0.15_PT060H.grib2 2026-04-30 04:12 1.3M
20260430T00Z_MSC_GDPS_WindDir_IsbL-0500_LatLon0.15_PT060H.grib2 2026-04-30 04:12 1.3M
20260430T00Z_MSC_GDPS_WindDir_IsbL-0550_LatLon0.15_PT060H.grib2 2026-04-30 04:12 1.4M
20260430T00Z_MSC_GDPS_WindDir_IsbL-0600_LatLon0.15_PT060H.grib2 2026-04-30 04:12 1.4M
20260430T00Z_MSC_GDPS_WindDir_IsbL-0650_LatLon0.15_PT060H.grib2 2026-04-30 04:12 1.5M
20260430T00Z_MSC_GDPS_WindDir_IsbL-0700_LatLon0.15_PT060H.grib2 2026-04-30 04:12 1.6M
20260430T00Z_MSC_GDPS_WindDir_IsbL-0750_LatLon0.15_PT060H.grib2 2026-04-30 04:12 1.7M
20260430T00Z_MSC_GDPS_WindDir_IsbL-0800_LatLon0.15_PT060H.grib2 2026-04-30 04:12 1.8M
20260430T00Z_MSC_GDPS_WindDir_IsbL-0850_LatLon0.15_PT060H.grib2 2026-04-30 04:12 1.9M
20260430T00Z_MSC_GDPS_WindDir_IsbL-0875_LatLon0.15_PT060H.grib2 2026-04-30 04:12 2.0M
20260430T00Z_MSC_GDPS_WindDir_IsbL-0900_LatLon0.15_PT060H.grib2 2026-04-30 04:12 2.0M
20260430T00Z_MSC_GDPS_WindDir_IsbL-0925_LatLon0.15_PT060H.grib2 2026-04-30 04:12 2.0M
20260430T00Z_MSC_GDPS_WindDir_IsbL-0950_LatLon0.15_PT060H.grib2 2026-04-30 04:12 2.0M
20260430T00Z_MSC_GDPS_WindDir_IsbL-0970_LatLon0.15_PT060H.grib2 2026-04-30 04:12 2.0M
20260430T00Z_MSC_GDPS_WindDir_IsbL-0985_LatLon0.15_PT060H.grib2 2026-04-30 04:12 2.0M
20260430T00Z_MSC_GDPS_WindDir_IsbL-1000_LatLon0.15_PT060H.grib2 2026-04-30 04:12 2.0M
20260430T00Z_MSC_GDPS_WindDir_IsbL-1015_LatLon0.15_PT060H.grib2 2026-04-30 04:12 2.0M
20260430T00Z_MSC_GDPS_WindGust-Max_AGL-10m_LatLon0.15_PT060H.grib2 2026-04-30 04:12 1.8M
20260430T00Z_MSC_GDPS_WindGust-Min_AGL-10m_LatLon0.15_PT060H.grib2 2026-04-30 04:12 2.1M
20260430T00Z_MSC_GDPS_WindGust_AGL-10m_LatLon0.15_PT060H.grib2 2026-04-30 04:12 1.8M
20260430T00Z_MSC_GDPS_WindSpeed_AGL-10m_LatLon0.15_PT060H.grib2 2026-04-30 04:12 1.1M
20260430T00Z_MSC_GDPS_WindSpeed_AGL-120m_LatLon0.15_PT060H.grib2 2026-04-30 04:12 1.2M
20260430T00Z_MSC_GDPS_WindSpeed_AGL-40m_LatLon0.15_PT060H.grib2 2026-04-30 04:12 1.2M
20260430T00Z_MSC_GDPS_WindSpeed_AGL-80m_LatLon0.15_PT060H.grib2 2026-04-30 04:12 1.2M
20260430T00Z_MSC_GDPS_WindSpeed_IsbL-0001_LatLon0.15_PT060H.grib2 2026-04-30 04:12 641K
20260430T00Z_MSC_GDPS_WindSpeed_IsbL-0005_LatLon0.15_PT060H.grib2 2026-04-30 04:12 691K
20260430T00Z_MSC_GDPS_WindSpeed_IsbL-0010_LatLon0.15_PT060H.grib2 2026-04-30 04:12 625K
20260430T00Z_MSC_GDPS_WindSpeed_IsbL-0020_LatLon0.15_PT060H.grib2 2026-04-30 04:12 667K
20260430T00Z_MSC_GDPS_WindSpeed_IsbL-0030_LatLon0.15_PT060H.grib2 2026-04-30 04:12 862K
20260430T00Z_MSC_GDPS_WindSpeed_IsbL-0050_LatLon0.15_PT060H.grib2 2026-04-30 04:12 902K
20260430T00Z_MSC_GDPS_WindSpeed_IsbL-0100_LatLon0.15_PT060H.grib2 2026-04-30 04:12 1.1M
20260430T00Z_MSC_GDPS_WindSpeed_IsbL-0150_LatLon0.15_PT060H.grib2 2026-04-30 04:12 946K
20260430T00Z_MSC_GDPS_WindSpeed_IsbL-0175_LatLon0.15_PT060H.grib2 2026-04-30 04:12 1.0M
20260430T00Z_MSC_GDPS_WindSpeed_IsbL-0200_LatLon0.15_PT060H.grib2 2026-04-30 04:12 1.1M
20260430T00Z_MSC_GDPS_WindSpeed_IsbL-0225_LatLon0.15_PT060H.grib2 2026-04-30 04:12 1.1M
20260430T00Z_MSC_GDPS_WindSpeed_IsbL-0250_LatLon0.15_PT060H.grib2 2026-04-30 04:12 1.1M
20260430T00Z_MSC_GDPS_WindSpeed_IsbL-0275_LatLon0.15_PT060H.grib2 2026-04-30 04:12 1.1M
20260430T00Z_MSC_GDPS_WindSpeed_IsbL-0300_LatLon0.15_PT060H.grib2 2026-04-30 04:12 1.1M
20260430T00Z_MSC_GDPS_WindSpeed_IsbL-0350_LatLon0.15_PT060H.grib2 2026-04-30 04:12 1.1M
20260430T00Z_MSC_GDPS_WindSpeed_IsbL-0400_LatLon0.15_PT060H.grib2 2026-04-30 04:12 1.1M
20260430T00Z_MSC_GDPS_WindSpeed_IsbL-0450_LatLon0.15_PT060H.grib2 2026-04-30 04:12 1.1M
20260430T00Z_MSC_GDPS_WindSpeed_IsbL-0500_LatLon0.15_PT060H.grib2 2026-04-30 04:12 1.1M
20260430T00Z_MSC_GDPS_WindSpeed_IsbL-0550_LatLon0.15_PT060H.grib2 2026-04-30 04:12 1.1M
20260430T00Z_MSC_GDPS_WindSpeed_IsbL-0600_LatLon0.15_PT060H.grib2 2026-04-30 04:12 1.4M
20260430T00Z_MSC_GDPS_WindSpeed_IsbL-0650_LatLon0.15_PT060H.grib2 2026-04-30 04:12 1.4M
20260430T00Z_MSC_GDPS_WindSpeed_IsbL-0700_LatLon0.15_PT060H.grib2 2026-04-30 04:12 1.5M
20260430T00Z_MSC_GDPS_WindSpeed_IsbL-0750_LatLon0.15_PT060H.grib2 2026-04-30 04:12 1.6M
20260430T00Z_MSC_GDPS_WindSpeed_IsbL-0800_LatLon0.15_PT060H.grib2 2026-04-30 04:12 1.7M
20260430T00Z_MSC_GDPS_WindSpeed_IsbL-0850_LatLon0.15_PT060H.grib2 2026-04-30 04:12 1.4M
20260430T00Z_MSC_GDPS_WindSpeed_IsbL-0875_LatLon0.15_PT060H.grib2 2026-04-30 04:12 1.5M
20260430T00Z_MSC_GDPS_WindSpeed_IsbL-0900_LatLon0.15_PT060H.grib2 2026-04-30 04:12 1.8M
20260430T00Z_MSC_GDPS_WindSpeed_IsbL-0925_LatLon0.15_PT060H.grib2 2026-04-30 04:12 1.8M
20260430T00Z_MSC_GDPS_WindSpeed_IsbL-0950_LatLon0.15_PT060H.grib2 2026-04-30 04:12 1.8M
20260430T00Z_MSC_GDPS_WindSpeed_IsbL-0970_LatLon0.15_PT060H.grib2 2026-04-30 04:12 1.8M
20260430T00Z_MSC_GDPS_WindSpeed_IsbL-0985_LatLon0.15_PT060H.grib2 2026-04-30 04:12 1.9M
20260430T00Z_MSC_GDPS_WindSpeed_IsbL-1000_LatLon0.15_PT060H.grib2 2026-04-30 04:12 1.9M
20260430T00Z_MSC_GDPS_WindSpeed_IsbL-1015_LatLon0.15_PT060H.grib2 2026-04-30 04:12 1.8M
20260430T00Z_MSC_GDPS_WindU_AGL-10m_LatLon0.15_PT060H.grib2 2026-04-30 04:12 1.3M
20260430T00Z_MSC_GDPS_WindU_AGL-120m_LatLon0.15_PT060H.grib2 2026-04-30 04:12 1.0M
20260430T00Z_MSC_GDPS_WindU_AGL-40m_LatLon0.15_PT060H.grib2 2026-04-30 04:12 1.0M
20260430T00Z_MSC_GDPS_WindU_AGL-80m_LatLon0.15_PT060H.grib2 2026-04-30 04:12 1.0M
20260430T00Z_MSC_GDPS_WindU_IsbL-0001_LatLon0.15_PT060H.grib2 2026-04-30 04:12 501K
20260430T00Z_MSC_GDPS_WindU_IsbL-0005_LatLon0.15_PT060H.grib2 2026-04-30 04:12 690K
20260430T00Z_MSC_GDPS_WindU_IsbL-0010_LatLon0.15_PT060H.grib2 2026-04-30 04:12 700K
20260430T00Z_MSC_GDPS_WindU_IsbL-0020_LatLon0.15_PT060H.grib2 2026-04-30 04:12 732K
20260430T00Z_MSC_GDPS_WindU_IsbL-0030_LatLon0.15_PT060H.grib2 2026-04-30 04:12 736K
20260430T00Z_MSC_GDPS_WindU_IsbL-0050_LatLon0.15_PT060H.grib2 2026-04-30 04:12 766K
20260430T00Z_MSC_GDPS_WindU_IsbL-0100_LatLon0.15_PT060H.grib2 2026-04-30 04:12 923K
20260430T00Z_MSC_GDPS_WindU_IsbL-0150_LatLon0.15_PT060H.grib2 2026-04-30 04:12 1.0M
20260430T00Z_MSC_GDPS_WindU_IsbL-0175_LatLon0.15_PT060H.grib2 2026-04-30 04:12 815K
20260430T00Z_MSC_GDPS_WindU_IsbL-0200_LatLon0.15_PT060H.grib2 2026-04-30 04:12 843K
20260430T00Z_MSC_GDPS_WindU_IsbL-0225_LatLon0.15_PT060H.grib2 2026-04-30 04:12 854K
20260430T00Z_MSC_GDPS_WindU_IsbL-0250_LatLon0.15_PT060H.grib2 2026-04-30 04:12 858K
20260430T00Z_MSC_GDPS_WindU_IsbL-0275_LatLon0.15_PT060H.grib2 2026-04-30 04:12 886K
20260430T00Z_MSC_GDPS_WindU_IsbL-0300_LatLon0.15_PT060H.grib2 2026-04-30 04:12 876K
20260430T00Z_MSC_GDPS_WindU_IsbL-0350_LatLon0.15_PT060H.grib2 2026-04-30 04:12 888K
20260430T00Z_MSC_GDPS_WindU_IsbL-0400_LatLon0.15_PT060H.grib2 2026-04-30 04:12 891K
20260430T00Z_MSC_GDPS_WindU_IsbL-0450_LatLon0.15_PT060H.grib2 2026-04-30 04:12 1.1M
20260430T00Z_MSC_GDPS_WindU_IsbL-0500_LatLon0.15_PT060H.grib2 2026-04-30 04:12 1.1M
20260430T00Z_MSC_GDPS_WindU_IsbL-0550_LatLon0.15_PT060H.grib2 2026-04-30 04:12 1.1M
20260430T00Z_MSC_GDPS_WindU_IsbL-0600_LatLon0.15_PT060H.grib2 2026-04-30 04:12 1.1M
20260430T00Z_MSC_GDPS_WindU_IsbL-0650_LatLon0.15_PT060H.grib2 2026-04-30 04:12 1.2M
20260430T00Z_MSC_GDPS_WindU_IsbL-0700_LatLon0.15_PT060H.grib2 2026-04-30 04:12 1.2M
20260430T00Z_MSC_GDPS_WindU_IsbL-0750_LatLon0.15_PT060H.grib2 2026-04-30 04:12 1.3M
20260430T00Z_MSC_GDPS_WindU_IsbL-0800_LatLon0.15_PT060H.grib2 2026-04-30 04:12 1.4M
20260430T00Z_MSC_GDPS_WindU_IsbL-0850_LatLon0.15_PT060H.grib2 2026-04-30 04:12 1.4M
20260430T00Z_MSC_GDPS_WindU_IsbL-0875_LatLon0.15_PT060H.grib2 2026-04-30 04:12 1.5M
20260430T00Z_MSC_GDPS_WindU_IsbL-0900_LatLon0.15_PT060H.grib2 2026-04-30 04:12 1.5M
20260430T00Z_MSC_GDPS_WindU_IsbL-0925_LatLon0.15_PT060H.grib2 2026-04-30 04:12 1.5M
20260430T00Z_MSC_GDPS_WindU_IsbL-0950_LatLon0.15_PT060H.grib2 2026-04-30 04:12 1.4M
20260430T00Z_MSC_GDPS_WindU_IsbL-0970_LatLon0.15_PT060H.grib2 2026-04-30 04:12 1.4M
20260430T00Z_MSC_GDPS_WindU_IsbL-0985_LatLon0.15_PT060H.grib2 2026-04-30 04:12 1.4M
20260430T00Z_MSC_GDPS_WindU_IsbL-1000_LatLon0.15_PT060H.grib2 2026-04-30 04:12 1.4M
20260430T00Z_MSC_GDPS_WindU_IsbL-1015_LatLon0.15_PT060H.grib2 2026-04-30 04:12 1.4M
20260430T00Z_MSC_GDPS_WindV_AGL-10m_LatLon0.15_PT060H.grib2 2026-04-30 04:12 1.3M
20260430T00Z_MSC_GDPS_WindV_AGL-120m_LatLon0.15_PT060H.grib2 2026-04-30 04:12 1.0M
20260430T00Z_MSC_GDPS_WindV_AGL-40m_LatLon0.15_PT060H.grib2 2026-04-30 04:12 1.0M
20260430T00Z_MSC_GDPS_WindV_AGL-80m_LatLon0.15_PT060H.grib2 2026-04-30 04:12 1.0M
20260430T00Z_MSC_GDPS_WindV_IsbL-0001_LatLon0.15_PT060H.grib2 2026-04-30 04:12 776K
20260430T00Z_MSC_GDPS_WindV_IsbL-0005_LatLon0.15_PT060H.grib2 2026-04-30 04:12 764K
20260430T00Z_MSC_GDPS_WindV_IsbL-0010_LatLon0.15_PT060H.grib2 2026-04-30 04:12 794K
20260430T00Z_MSC_GDPS_WindV_IsbL-0020_LatLon0.15_PT060H.grib2 2026-04-30 04:12 852K
20260430T00Z_MSC_GDPS_WindV_IsbL-0030_LatLon0.15_PT060H.grib2 2026-04-30 04:12 850K
20260430T00Z_MSC_GDPS_WindV_IsbL-0050_LatLon0.15_PT060H.grib2 2026-04-30 04:12 900K
20260430T00Z_MSC_GDPS_WindV_IsbL-0100_LatLon0.15_PT060H.grib2 2026-04-30 04:12 1.1M
20260430T00Z_MSC_GDPS_WindV_IsbL-0150_LatLon0.15_PT060H.grib2 2026-04-30 04:12 1.0M
20260430T00Z_MSC_GDPS_WindV_IsbL-0175_LatLon0.15_PT060H.grib2 2026-04-30 04:12 1.0M
20260430T00Z_MSC_GDPS_WindV_IsbL-0200_LatLon0.15_PT060H.grib2 2026-04-30 04:12 841K
20260430T00Z_MSC_GDPS_WindV_IsbL-0225_LatLon0.15_PT060H.grib2 2026-04-30 04:12 850K
20260430T00Z_MSC_GDPS_WindV_IsbL-0250_LatLon0.15_PT060H.grib2 2026-04-30 04:12 909K
20260430T00Z_MSC_GDPS_WindV_IsbL-0275_LatLon0.15_PT060H.grib2 2026-04-30 04:12 935K
20260430T00Z_MSC_GDPS_WindV_IsbL-0300_LatLon0.15_PT060H.grib2 2026-04-30 04:12 865K
20260430T00Z_MSC_GDPS_WindV_IsbL-0350_LatLon0.15_PT060H.grib2 2026-04-30 04:12 878K
20260430T00Z_MSC_GDPS_WindV_IsbL-0400_LatLon0.15_PT060H.grib2 2026-04-30 04:12 879K
20260430T00Z_MSC_GDPS_WindV_IsbL-0450_LatLon0.15_PT060H.grib2 2026-04-30 04:12 1.1M
20260430T00Z_MSC_GDPS_WindV_IsbL-0500_LatLon0.15_PT060H.grib2 2026-04-30 04:12 1.1M
20260430T00Z_MSC_GDPS_WindV_IsbL-0550_LatLon0.15_PT060H.grib2 2026-04-30 04:12 1.1M
20260430T00Z_MSC_GDPS_WindV_IsbL-0600_LatLon0.15_PT060H.grib2 2026-04-30 04:12 1.1M
20260430T00Z_MSC_GDPS_WindV_IsbL-0650_LatLon0.15_PT060H.grib2 2026-04-30 04:12 1.2M
20260430T00Z_MSC_GDPS_WindV_IsbL-0700_LatLon0.15_PT060H.grib2 2026-04-30 04:12 1.2M
20260430T00Z_MSC_GDPS_WindV_IsbL-0750_LatLon0.15_PT060H.grib2 2026-04-30 04:12 1.3M
20260430T00Z_MSC_GDPS_WindV_IsbL-0800_LatLon0.15_PT060H.grib2 2026-04-30 04:12 1.3M
20260430T00Z_MSC_GDPS_WindV_IsbL-0850_LatLon0.15_PT060H.grib2 2026-04-30 04:12 1.4M
20260430T00Z_MSC_GDPS_WindV_IsbL-0875_LatLon0.15_PT060H.grib2 2026-04-30 04:12 1.4M
20260430T00Z_MSC_GDPS_WindV_IsbL-0900_LatLon0.15_PT060H.grib2 2026-04-30 04:12 1.5M
20260430T00Z_MSC_GDPS_WindV_IsbL-0925_LatLon0.15_PT060H.grib2 2026-04-30 04:12 1.5M
20260430T00Z_MSC_GDPS_WindV_IsbL-0950_LatLon0.15_PT060H.grib2 2026-04-30 04:12 1.4M
20260430T00Z_MSC_GDPS_WindV_IsbL-0970_LatLon0.15_PT060H.grib2 2026-04-30 04:12 1.4M
20260430T00Z_MSC_GDPS_WindV_IsbL-0985_LatLon0.15_PT060H.grib2 2026-04-30 04:12 1.4M
20260430T00Z_MSC_GDPS_WindV_IsbL-1000_LatLon0.15_PT060H.grib2 2026-04-30 04:12 1.4M
20260430T00Z_MSC_GDPS_WindV_IsbL-1015_LatLon0.15_PT060H.grib2 2026-04-30 04:12 1.3M